Mona Airport

Jump to: basic info | weather | comments

Related pages: nearby airports | nearby navaids

Basic information (top)

Location: lon 18.075300, lat -67.931000, elev 1 ft / 0 m msl
Status: small_airport

Weather (top)

Current conditions for Punta Cana International Airport 38nm (71km) NW (rec'd 2015/03/31 09:00Z):

MDPC 310900Z 00000KT 9999 FEW020 SCT090 23/21 Q1015

Airport forecast for Punta Cana International Airport 38nm (71km) NW (rec'd 2015/03/28 00:18Z):

TAF MDPC 282200Z 2900/2924 VRB02KT 9999 FEW025 
      BECMG 2906/2908 00000KT

Latest comments (top)

No comments yet for Mona Airport

More... (top)

See also NOTAMs and nearby airports and navaids, or visit the Mona Airport page at the main OurAirports website..